{"data":{"norad_id":68551,"intl_designator":"2026-070K","name":"STARLINK-37288","alt_names":[],"object_type":"PAYLOAD","status":"ACTIVE","operator":null,"country":"US","launch_date":"2026-04-02","launch_site_code":"AFETR","launch_vehicle":null,"mission":null,"orbit_class":"UNKNOWN","rcs_meters":null,"size_class":null,"mass_kg":null,"dimensions":null,"purposes":["comms"],"wikipedia_slug":null,"has_3d_model":false,"image_url":null,"decayed_at":null,"tle_current":{"epoch":"2026-05-25T00:00:02.000160Z","epoch_age_seconds":75380,"freshness":"FRESH","line1":"1 68551U 26070K   26145.00002315  .00038749  00000+0  11531-2 0  9992","line2":"2 68551  53.1599   7.7057 0000932  77.4389 304.2727 15.34371963  5997","mean_motion":15.34371963,"eccentricity":9.32e-5,"inclination_deg":53.1599,"raan_deg":7.7057,"arg_perigee_deg":77.4389,"mean_anomaly_deg":304.2727,"bstar":0.0011531,"rev_number":599,"period_min":93.849472926012,"perigee_km":462.14899927151,"apogee_km":463.42414742558,"semimajor_km":6840.9235733485,"source":"CELESTRAK","updated_at":"2026-05-25T13:38:21.961395Z"}}}